Time,TemperatureF,DewpointF,PressureIn,WindDirection,WindDirectionDegrees,WindSpeedMPH,WindSpeedGustMPH,Humidity,HourlyPrecipIn,Conditions,Clouds,dailyrainin,SoftwareType,DateUTC
2013-03-26 00:03:00,53.0,-99.9,30.08,WNW,292,12.0,16.0,-999,-99.99,,,-99.99,,2013-03-26 04:03:00,
2013-03-26 00:13:00,53.0,-99.9,30.08,WNW,291,12.0,15.0,-999,-99.99,,,-99.99,,2013-03-26 04:13:00,
2013-03-26 00:23:00,53.0,-99.9,30.08,WNW,300,13.0,18.0,-999,-99.99,,,-99.99,,2013-03-26 04:23:00,
2013-03-26 00:33:00,52.0,-99.9,30.08,NW,305,13.0,19.0,-999,-99.99,,,-99.99,,2013-03-26 04:33:00,
2013-03-26 00:43:00,52.0,-99.9,30.09,NW,305,11.0,14.0,-999,-99.99,,,-99.99,,2013-03-26 04:43:00,
2013-03-26 00:53:00,52.0,-99.9,30.09,NW,305,10.0,14.0,-999,-99.99,,,-99.99,,2013-03-26 04:53:00,
2013-03-26 01:02:00,51.0,-99.9,30.09,WNW,302,11.0,15.0,-999,-99.99,,,-99.99,,2013-03-26 05:02:00,
2013-03-26 01:12:00,51.0,-99.9,30.10,NW,316,12.0,17.0,-999,-99.99,,,-99.99,,2013-03-26 05:12:00,
2013-03-26 01:23:00,51.0,-99.9,30.10,NW,310,10.0,15.0,-999,-99.99,,,-99.99,,2013-03-26 05:23:00,
2013-03-26 01:32:00,51.0,-99.9,30.10,WNW,302,12.0,16.0,-999,-99.99,,,-99.99,,2013-03-26 05:32:00,
2013-03-26 01:43:00,50.0,-99.9,30.10,WNW,299,13.0,15.0,-999,-99.99,,,-99.99,,2013-03-26 05:43:00,
2013-03-26 01:52:00,50.0,-99.9,30.11,WNW,303,11.0,15.0,-999,-99.99,,,-99.99,,2013-03-26 05:52:00,
2013-03-26 02:02:00,50.0,-99.9,30.11,NW,305,11.0,16.0,-999,-99.99,,,-99.99,,2013-03-26 06:02:00,
2013-03-26 02:12:00,50.0,-99.9,30.11,NW,310,10.0,16.0,-999,-99.99,,,-99.99,,2013-03-26 06:12:00,
2013-03-26 02:22:00,49.0,-99.9,30.11,NW,319,9.0,15.0,-999,-99.99,,,-99.99,,2013-03-26 06:22:00,
2013-03-26 02:32:00,49.0,-99.9,30.11,NW,322,9.0,14.0,-999,-99.99,,,-99.99,,2013-03-26 06:32:00,
2013-03-26 02:43:00,48.0,-99.9,30.11,NW,323,10.0,14.0,-999,-99.99,,,-99.99,,2013-03-26 06:43:00,
2013-03-26 02:53:00,48.0,-99.9,30.10,NW,323,9.0,12.0,-999,-99.99,,,-99.99,,2013-03-26 06:53:00,
2013-03-26 03:02:00,48.0,-99.9,30.11,NW,322,11.0,15.0,-999,-99.99,,,-99.99,,2013-03-26 07:02:00,
2013-03-26 03:12:00,48.0,-99.9,30.11,NW,322,9.0,15.0,-999,-99.99,,,-99.99,,2013-03-26 07:12:00,
2013-03-26 03:22:00,48.0,-99.9,30.11,NW,323,10.0,15.0,-999,-99.99,,,-99.99,,2013-03-26 07:22:00,
2013-03-26 03:33:00,47.0,-99.9,30.11,NW,324,12.0,16.0,-999,-99.99,,,-99.99,,2013-03-26 07:33:00,
2013-03-26 03:43:00,47.0,-99.9,30.11,NW,326,10.0,15.0,-999,-99.99,,,-99.99,,2013-03-26 07:43:00,
2013-03-26 03:53:00,47.0,-99.9,30.11,NNW,333,10.0,14.0,-999,-99.99,,,-99.99,,2013-03-26 07:53:00,
2013-03-26 04:02:00,46.0,-99.9,30.11,NNW,336,10.0,16.0,-999,-99.99,,,-99.99,,2013-03-26 08:02:00,
2013-03-26 04:13:00,45.0,-99.9,30.11,NNW,339,11.0,17.0,-999,-99.99,,,-99.99,,2013-03-26 08:13:00,
2013-03-26 04:22:00,45.0,-99.9,30.12,North,351,9.0,13.0,-999,-99.99,,,-99.99,,2013-03-26 08:22:00,
2013-03-26 04:32:00,45.0,-99.9,30.12,NNW,346,7.0,10.0,-999,-99.99,,,-99.99,,2013-03-26 08:32:00,
2013-03-26 04:42:00,44.0,-99.9,30.12,North,350,8.0,10.0,-999,-99.99,,,-99.99,,2013-03-26 08:42:00,
2013-03-26 04:52:00,44.0,-99.9,30.13,NNW,348,7.0,10.0,-999,-99.99,,,-99.99,,2013-03-26 08:52:00,
2013-03-26 05:02:00,44.0,-99.9,30.12,NNW,346,8.0,11.0,-999,-99.99,,,-99.99,,2013-03-26 09:02:00,
2013-03-26 05:12:00,43.0,-99.9,30.13,NNW,340,8.0,10.0,-999,-99.99,,,-99.99,,2013-03-26 09:12:00,
2013-03-26 05:22:00,43.0,-99.9,30.13,NNW,341,9.0,12.0,-999,-99.99,,,-99.99,,2013-03-26 09:22:00,
2013-03-26 05:33:00,43.0,-99.9,30.13,NNW,342,9.0,12.0,-999,-99.99,,,-99.99,,2013-03-26 09:33:00,
2013-03-26 05:43:00,42.0,-99.9,30.13,NNW,342,9.0,13.0,-999,-99.99,,,-99.99,,2013-03-26 09:43:00,
2013-03-26 05:52:00,42.0,-99.9,30.13,NNW,343,11.0,15.0,-999,-99.99,,,-99.99,,2013-03-26 09:52:00,
2013-03-26 06:03:00,42.0,-99.9,30.13,NNW,341,14.0,20.0,-999,-99.99,,,-99.99,,2013-03-26 10:03:00,
2013-03-26 06:12:00,42.0,-99.9,30.14,NNW,338,13.0,16.0,-999,-99.99,,,-99.99,,2013-03-26 10:12:00,
2013-03-26 06:23:00,42.0,-99.9,30.14,NNW,334,13.0,19.0,-999,-99.99,,,-99.99,,2013-03-26 10:23:00,
2013-03-26 06:33:00,42.0,-99.9,30.14,NW,316,11.0,16.0,-999,-99.99,,,-99.99,,2013-03-26 10:33:00,
2013-03-26 06:43:00,42.0,-99.9,30.15,NW,317,10.0,13.0,-999,-99.99,,,-99.99,,2013-03-26 10:43:00,
2013-03-26 06:53:00,42.0,-99.9,30.15,NW,317,11.0,17.0,-999,-99.99,,,-99.99,,2013-03-26 10:53:00,
2013-03-26 07:03:00,42.0,-99.9,30.16,NW,317,12.0,14.0,-999,-99.99,,,-99.99,,2013-03-26 11:03:00,
2013-03-26 07:12:00,41.0,-99.9,30.16,NW,318,11.0,15.0,-999,-99.99,,,-99.99,,2013-03-26 11:12:00,
2013-03-26 07:23:00,41.0,-99.9,30.16,NW,319,11.0,16.0,-999,-99.99,,,-99.99,,2013-03-26 11:23:00,
2013-03-26 07:33:00,41.0,-99.9,30.17,NW,322,12.0,15.0,-999,-99.99,,,-99.99,,2013-03-26 11:33:00,
2013-03-26 07:43:00,41.0,-99.9,30.17,NW,314,10.0,13.0,-999,-99.99,,,-99.99,,2013-03-26 11:43:00,
2013-03-26 07:53:00,41.0,-99.9,30.17,NW,317,14.0,16.0,-999,-99.99,,,-99.99,,2013-03-26 11:53:00,
2013-03-26 08:03:00,41.0,-99.9,30.17,NW,317,14.0,16.0,-999,-99.99,,,-99.99,,2013-03-26 12:03:00,
2013-03-26 08:12:00,41.0,-99.9,30.18,NW,323,13.0,19.0,-999,-99.99,,,-99.99,,2013-03-26 12:12:00,
2013-03-26 08:22:00,41.0,-99.9,30.18,NW,326,13.0,17.0,-999,-99.99,,,-99.99,,2013-03-26 12:22:00,
2013-03-26 08:32:00,41.0,-99.9,30.18,NW,320,12.0,16.0,-999,-99.99,,,-99.99,,2013-03-26 12:32:00,
2013-03-26 08:43:00,41.0,-99.9,30.18,NW,320,12.0,17.0,-999,-99.99,,,-99.99,,2013-03-26 12:43:00,
2013-03-26 08:52:00,41.0,-99.9,30.19,NW,320,14.0,17.0,-999,-99.99,,,-99.99,,2013-03-26 12:52:00,
2013-03-26 09:03:00,42.0,-99.9,30.19,NW,319,14.0,19.0,-999,-99.99,,,-99.99,,2013-03-26 13:03:00,
2013-03-26 09:12:00,42.0,-99.9,30.19,NW,317,13.0,19.0,-999,-99.99,,,-99.99,,2013-03-26 13:12:00,
2013-03-26 09:23:00,42.0,-99.9,30.19,WNW,303,16.0,21.0,-999,-99.99,,,-99.99,,2013-03-26 13:23:00,
2013-03-26 09:32:00,42.0,-99.9,30.19,NW,308,15.0,20.0,-999,-99.99,,,-99.99,,2013-03-26 13:32:00,
2013-03-26 09:42:00,42.0,-99.9,30.19,NW,316,17.0,25.0,-999,-99.99,,,-99.99,,2013-03-26 13:42:00,
2013-03-26 09:52:00,42.0,-99.9,30.19,NW,314,16.0,23.0,-999,-99.99,,,-99.99,,2013-03-26 13:52:00,
2013-03-26 10:02:00,42.0,-99.9,30.19,NW,314,16.0,24.0,-999,-99.99,,,-99.99,,2013-03-26 14:02:00,
2013-03-26 10:12:00,42.0,-99.9,30.19,NW,322,15.0,26.0,-999,-99.99,,,-99.99,,2013-03-26 14:12:00,
2013-03-26 10:23:00,42.0,-99.9,30.19,NNW,329,16.0,21.0,-999,-99.99,,,-99.99,,2013-03-26 14:23:00,
2013-03-26 10:33:00,43.0,-99.9,30.19,NW,314,15.0,20.0,-999,-99.99,,,-99.99,,2013-03-26 14:33:00,
2013-03-26 10:42:00,43.0,-99.9,30.19,NW,316,15.0,22.0,-999,-99.99,,,-99.99,,2013-03-26 14:42:00,
2013-03-26 10:53:00,43.0,-99.9,30.19,NW,316,16.0,20.0,-999,-99.99,,,-99.99,,2013-03-26 14:53:00,
2013-03-26 11:02:00,44.0,-99.9,30.19,NW,306,10.0,18.0,-999,-99.99,,,-99.99,,2013-03-26 15:02:00,
2013-03-26 11:12:00,44.0,-99.9,30.19,WNW,294,13.0,20.0,-999,-99.99,,,-99.99,,2013-03-26 15:12:00,
2013-03-26 11:22:00,44.0,-99.9,30.19,NW,310,16.0,19.0,-999,-99.99,,,-99.99,,2013-03-26 15:22:00,
2013-03-26 11:33:00,44.0,-99.9,30.19,WNW,290,19.0,25.0,-999,-99.99,,,-99.99,,2013-03-26 15:33:00,
2013-03-26 11:43:00,44.0,-99.9,30.19,WNW,292,17.0,26.0,-999,-99.99,,,-99.99,,2013-03-26 15:43:00,
2013-03-26 11:53:00,45.0,-99.9,30.19,WNW,299,17.0,23.0,-999,-99.99,,,-99.99,,2013-03-26 15:53:00,
2013-03-26 12:03:00,45.0,-99.9,30.19,West,280,19.0,23.0,-999,-99.99,,,-99.99,,2013-03-26 16:03:00,
2013-03-26 12:13:00,45.0,-99.9,30.19,WNW,287,17.0,24.0,-999,-99.99,,,-99.99,,2013-03-26 16:13:00,
2013-03-26 12:23:00,45.0,-99.9,30.19,WNW,303,20.0,24.0,-999,-99.99,,,-99.99,,2013-03-26 16:23:00,
2013-03-26 12:33:00,46.0,-99.9,30.19,WNW,296,17.0,23.0,-999,-99.99,,,-99.99,,2013-03-26 16:33:00,
2013-03-26 12:43:00,46.0,-99.9,30.19,West,281,18.0,24.0,-999,-99.99,,,-99.99,,2013-03-26 16:43:00,
2013-03-26 12:54:00,46.0,-99.9,30.18,West,280,19.0,25.0,-999,-99.99,,,-99.99,,2013-03-26 16:54:00,
2013-03-26 13:03:00,47.0,-99.9,30.18,WNW,283,13.0,25.0,-999,-99.99,,,-99.99,,2013-03-26 17:03:00,
2013-03-26 13:12:00,47.0,-99.9,30.18,West,277,18.0,23.0,-999,-99.99,,,-99.99,,2013-03-26 17:12:00,
2013-03-26 13:23:00,47.0,-99.9,30.18,WNW,293,16.0,19.0,-999,-99.99,,,-99.99,,2013-03-26 17:23:00,
2013-03-26 13:33:00,47.0,-99.9,30.18,West,277,16.0,26.0,-999,-99.99,,,-99.99,,2013-03-26 17:33:00,
2013-03-26 13:42:00,48.0,-99.9,30.18,WNW,298,18.0,25.0,-999,-99.99,,,-99.99,,2013-03-26 17:42:00,
2013-03-26 13:53:00,48.0,-99.9,30.18,WNW,295,15.0,25.0,-999,-99.99,,,-99.99,,2013-03-26 17:53:00,
2013-03-26 14:03:00,48.0,-99.9,30.18,West,278,22.0,27.0,-999,-99.99,,,-99.99,,2013-03-26 18:03:00,
2013-03-26 14:12:00,49.0,-99.9,30.17,WNW,289,21.0,28.0,-999,-99.99,,,-99.99,,2013-03-26 18:12:00,
2013-03-26 14:23:00,49.0,-99.9,30.17,West,277,24.0,28.0,-999,-99.99,,,-99.99,,2013-03-26 18:23:00,
2013-03-26 14:34:00,50.0,-99.9,30.17,West,271,20.0,28.0,-999,-99.99,,,-99.99,,2013-03-26 18:34:00,
2013-03-26 14:42:00,50.0,-99.9,30.17,NW,309,18.0,23.0,-999,-99.99,,,-99.99,,2013-03-26 18:42:00,
2013-03-26 14:53:00,49.0,-99.9,30.16,West,281,17.0,24.0,-999,-99.99,,,-99.99,,2013-03-26 18:53:00,
2013-03-26 15:03:00,50.0,-99.9,30.16,West,279,20.0,24.0,-999,-99.99,,,-99.99,,2013-03-26 19:03:00,
2013-03-26 15:12:00,50.0,-99.9,30.16,WNW,303,21.0,29.0,-999,-99.99,,,-99.99,,2013-03-26 19:12:00,
2013-03-26 15:23:00,50.0,-99.9,30.16,WNW,303,21.0,29.0,-999,-99.99,,,-99.99,,2013-03-26 19:23:00,
2013-03-26 15:33:00,50.0,-99.9,30.16,WNW,303,21.0,29.0,-999,-99.99,,,-99.99,,2013-03-26 19:33:00,
2013-03-26 15:53:00,51.0,-99.9,30.15,WNW,282,25.0,32.0,-999,-99.99,,,-99.99,,2013-03-26 19:53:00,
2013-03-26 16:02:00,52.0,-99.9,30.14,WNW,295,19.0,30.0,-999,-99.99,,,-99.99,,2013-03-26 20:02:00,
2013-03-26 16:13:00,51.0,-99.9,30.14,NW,305,19.0,24.0,-999,-99.99,,,-99.99,,2013-03-26 20:13:00,
2013-03-26 16:23:00,52.0,-99.9,30.14,NW,306,18.0,24.0,-999,-99.99,,,-99.99,,2013-03-26 20:23:00,
2013-03-26 16:33:00,52.0,-99.9,30.14,WNW,295,18.0,25.0,-999,-99.99,,,-99.99,,2013-03-26 20:33:00,
2013-03-26 16:43:00,52.0,-99.9,30.14,WNW,293,21.0,28.0,-999,-99.99,,,-99.99,,2013-03-26 20:43:00,
2013-03-26 16:53:00,52.0,-99.9,30.14,NW,306,21.0,28.0,-999,-99.99,,,-99.99,,2013-03-26 20:53:00,
2013-03-26 17:02:00,52.0,-99.9,30.15,WNW,299,19.0,28.0,-999,-99.99,,,-99.99,,2013-03-26 21:02:00,
2013-03-26 17:13:00,53.0,-99.9,30.15,WNW,291,18.0,28.0,-999,-99.99,,,-99.99,,2013-03-26 21:13:00,
2013-03-26 17:23:00,53.0,-99.9,30.15,WNW,295,17.0,23.0,-999,-99.99,,,-99.99,,2013-03-26 21:23:00,
2013-03-26 17:33:00,53.0,-99.9,30.16,NW,323,20.0,28.0,-999,-99.99,,,-99.99,,2013-03-26 21:33:00,
2013-03-26 17:43:00,53.0,-99.9,30.16,WNW,295,19.0,24.0,-999,-99.99,,,-99.99,,2013-03-26 21:43:00,
2013-03-26 17:53:00,53.0,-99.9,30.16,West,278,16.0,23.0,-999,-99.99,,,-99.99,,2013-03-26 21:53:00,
2013-03-26 18:02:00,53.0,-99.9,30.16,NW,309,22.0,26.0,-999,-99.99,,,-99.99,,2013-03-26 22:02:00,
2013-03-26 18:12:00,53.0,-99.9,30.17,NW,318,20.0,24.0,-999,-99.99,,,-99.99,,2013-03-26 22:12:00,
2013-03-26 18:23:00,52.0,-99.9,30.17,NW,319,17.0,24.0,-999,-99.99,,,-99.99,,2013-03-26 22:23:00,
2013-03-26 18:33:00,53.0,-99.9,30.17,NNW,328,15.0,20.0,-999,-99.99,,,-99.99,,2013-03-26 22:33:00,
2013-03-26 18:43:00,53.0,-99.9,30.18,NW,315,16.0,20.0,-999,-99.99,,,-99.99,,2013-03-26 22:43:00,
2013-03-26 18:53:00,52.0,-99.9,30.18,NNW,332,13.0,19.0,-999,-99.99,,,-99.99,,2013-03-26 22:53:00,
2013-03-26 19:01:00,52.0,-99.9,30.19,NW,322,17.0,22.0,-999,-99.99,,,-99.99,,2013-03-26 23:01:00,
2013-03-26 19:11:00,52.0,-99.9,30.19,NW,325,15.0,20.0,-999,-99.99,,,-99.99,,2013-03-26 23:11:00,
2013-03-26 19:23:00,52.0,-99.9,30.19,NW,322,16.0,21.0,-999,-99.99,,,-99.99,,2013-03-26 23:23:00,
2013-03-26 19:33:00,52.0,-99.9,30.20,NNW,329,15.0,20.0,-999,-99.99,,,-99.99,,2013-03-26 23:33:00,
2013-03-26 19:43:00,52.0,-99.9,30.20,NW,318,15.0,20.0,-999,-99.99,,,-99.99,,2013-03-26 23:43:00,
2013-03-26 19:53:00,51.0,-99.9,30.20,NNW,327,15.0,22.0,-999,-99.99,,,-99.99,,2013-03-26 23:53:00,
2013-03-26 20:02:00,51.0,-99.9,30.21,NW,323,15.0,18.0,-999,-99.99,,,-99.99,,2013-03-27 00:02:00,
2013-03-26 20:12:00,51.0,-99.9,30.22,NW,321,9.0,14.0,-999,-99.99,,,-99.99,,2013-03-27 00:12:00,
2013-03-26 20:22:00,51.0,-99.9,30.22,NNW,327,11.0,15.0,-999,-99.99,,,-99.99,,2013-03-27 00:22:00,
2013-03-26 20:33:00,50.0,-99.9,30.23,NW,318,11.0,13.0,-999,-99.99,,,-99.99,,2013-03-27 00:33:00,
2013-03-26 20:43:00,50.0,-99.9,30.23,NW,320,10.0,15.0,-999,-99.99,,,-99.99,,2013-03-27 00:43:00,
2013-03-26 20:52:00,50.0,-99.9,30.23,NW,319,8.0,12.0,-999,-99.99,,,-99.99,,2013-03-27 00:52:00,
2013-03-26 21:02:00,49.0,-99.9,30.24,NW,323,7.0,11.0,-999,-99.99,,,-99.99,,2013-03-27 01:02:00,
2013-03-26 21:12:00,49.0,-99.9,30.24,NNW,331,6.0,10.0,-999,-99.99,,,-99.99,,2013-03-27 01:12:00,
2013-03-26 21:23:00,49.0,-99.9,30.25,NNW,331,9.0,12.0,-999,-99.99,,,-99.99,,2013-03-27 01:23:00,
2013-03-26 21:33:00,49.0,-99.9,30.26,NNW,332,6.0,9.0,-999,-99.99,,,-99.99,,2013-03-27 01:33:00,
2013-03-26 21:43:00,48.0,-99.9,30.26,NNW,342,7.0,9.0,-999,-99.99,,,-99.99,,2013-03-27 01:43:00,
2013-03-26 21:53:00,48.0,-99.9,30.27,NNW,347,6.0,7.0,-999,-99.99,,,-99.99,,2013-03-27 01:53:00,
2013-03-26 22:03:00,47.0,-99.9,30.27,NNW,346,6.0,7.0,-999,-99.99,,,-99.99,,2013-03-27 02:03:00,
2013-03-26 22:12:00,47.0,-99.9,30.28,NNW,340,7.0,9.0,-999,-99.99,,,-99.99,,2013-03-27 02:12:00,
2013-03-26 22:22:00,47.0,-99.9,30.28,NNW,341,7.0,9.0,-999,-99.99,,,-99.99,,2013-03-27 02:22:00,
2013-03-26 22:32:00,47.0,-99.9,30.29,North,349,7.0,10.0,-999,-99.99,,,-99.99,,2013-03-27 02:32:00,
2013-03-26 22:43:00,47.0,-99.9,30.29,NNW,338,6.0,8.0,-999,-99.99,,,-99.99,,2013-03-27 02:43:00,
2013-03-26 22:53:00,47.0,-99.9,30.29,NNW,346,6.0,8.0,-999,-99.99,,,-99.99,,2013-03-27 02:53:00,
2013-03-26 23:02:00,47.0,-99.9,30.29,NNW,342,7.0,9.0,-999,-99.99,,,-99.99,,2013-03-27 03:02:00,
2013-03-26 23:12:00,46.0,-99.9,30.29,NNW,345,7.0,10.0,-999,-99.99,,,-99.99,,2013-03-27 03:12:00,
2013-03-26 23:22:00,46.0,-99.9,30.30,North,350,7.0,9.0,-999,-99.99,,,-99.99,,2013-03-27 03:22:00,
2013-03-26 23:33:00,46.0,-99.9,30.30,NNW,345,7.0,9.0,-999,-99.99,,,-99.99,,2013-03-27 03:33:00,
2013-03-26 23:43:00,46.0,-99.9,30.31,North,352,6.0,11.0,-999,-99.99,,,-99.99,,2013-03-27 03:43:00,
2013-03-26 23:53:00,45.0,-99.9,30.31,NNW,345,6.0,8.0,-999,-99.99,,,-99.99,,2013-03-27 03:53:00,